SL-16 R/B, 17590

Orbit data source: Space-Track

SL-16 R/B, 17590 is space debris in LEO originally from a launch on Wed, 18 Mar 1987 UTC launched from the Tyuratam Missile And Space Complex (TTMTR). Debris objects in space refer to the collection of defunct objects orbiting the Earth. Examples of debris include non-operational satellites, rocket bodies, and fragments generated from explosions, collisions, or faulty payload assembly.

Loading next visibility...
Identifier
17590, 1987-027B
Orbit
LEO
Country
Flag of CISCIS
Related business
Manufacturer
Yuzhnoe
Mission
Spacecraft
Bus & Motor
11S772, Unknown motor
Mass
9,000 kg wet, 9,000 kg dry
Launch date (UTC)
1987-03-18 (39 years ago)
Launch vehicle
Unknown
Launch site
Tyuratam Missile And Space Complex (TTMTR)
Object type
Payload
Rocket body
Debris
Shape & HBR
Cyl, 5.2 m
Radar Cross Section
37.829 m², Large (>1 m²)

Expand to show TLE details & history
Last TLE update: 5 hours ago

TLE from 5 hours ago
0 SL-16 R/B
1 17590U 87027B   25304.66301037  .00000034  00000-0  40736-4 0  9997
2 17590  71.0022 188.3800 0006789 303.9804  56.0674 14.17142154997105
Epoch: 2025-10-31T15:54Z
TLE epoch observation values (Epoch: 2025-10-31T15:54:44.095Z)
Latitude
-0.00006°
Longitude
-90.50797°
Altitude
834.705 km
Speed
7.437 km/s
True Right ascension
12h 33m 31s
True Declination
0° 00' 00"
Sunlit
Object was in daylight at epoch
Visualization orbit readout
Latitude
Unknown
Longitude
Unknown
Altitude
Unknown
Speed
Unknown
Apparent Right ascension
Unknown
Apparent Declination
Unknown
Sunlit
N/A
Visualization observer readout
Local Sidereal Time
16:54:48
Azimuth
Unknown
Elevation
Unknown
Doppler factor
Unknown
Orbital elements
Apogee altitude
837.852 km
Perigee altitude
828.061 km
Semi-major axis
7,211.094 km
Eccentricity
0.00068
Inclination
71.0022°
RAAN
188.38°
Arg. of periapsis
303.9804°
True anomaly
56.13198°
Mean anomaly
56.0674°
Eccentric anomaly
56.09969°
Mean motion
3.54439 °/min
Orbital period
101.57 mins
BSTAR
0.000040736
Loading maneuver chart data...
Computing Atmospheric mass density...
Loading historical data...
Loading historical data...
Loading historical data...
Loading historical data...
Loading historical data...
Loading historical data...
Loading historical data...

Documentation

Showing up to 5 results
|